Вернуться в каталог

DELTA 1 DEB

АктивенSSO
NORAD 7027·DEBRIS·🇺🇸 United States

Запущен Nov 6, 1973 с Vandenberg Space Force Base

Loading…

Ближайшие Пролёты (ближайшие 24 часа)

TLE

СвежийSource: Space-Track

Эпоха: Sep 13, 2026, 22:42 UTC

1  7027U 73086T   26256.94613647 -.00000075  00000-0 -24443-3 0  9995
2  7027 101.8975 145.9255 0054301 242.3372 130.4602 12.35229440375009

Отслеживайте DELTA 1 DEB в реальном времени с AllMySat

Download on the App Store